Overview Statistics Trail Chart Weather Telemetry Raw packets
 

This is the latest recevied weather packets stored in our database for station/object W8KVG. If no packets are shown the sender has not sent any weather packets the latest 10 day(s).

<< 48 49 50 51 52 53 54 >>
Time Temp. Humidity Pressure Rain* Wind** Luminosity Snow
1777590364 8.89° C 73% 1013.2 hPa 0 mm - 40 W/m² -
1777590061 9.44° C 73% 1013.1 hPa 0 mm - 61 W/m² -
1777589758 8.89° C 72% 1013.1 hPa 0 mm - 65 W/m² -
1777589460 8.89° C 72% 1013.3 hPa 0 mm - 58 W/m² -
1777589152 8.89° C 72% 1013.2 hPa 0 mm - 52 W/m² -
1777588848 8.89° C 70% 1013.2 hPa 0 mm - 62 W/m² -
1777588544 8.89° C 70% 1013.2 hPa 0 mm - 93 W/m² -
1777588240 8.89° C 70% 1013.5 hPa 0 mm - 70 W/m² -
1777587935 8.89° C 70% 1013.5 hPa 0 mm - 18 W/m² -
1777587632 8.89° C 70% 1013.2 hPa 0 mm - 25 W/m² -
1777587326 8.89° C 71% 1013.3 hPa 0 mm - 30 W/m² -
1777587022 8.89° C 71% 1013.1 hPa 0 mm - 64 W/m² -
1777586717 9.44° C 73% 1013.3 hPa 0 mm - 32 W/m² -
1777586414 9.44° C 73% 1013 hPa 0 mm - 14 W/m² -
1777586113 8.89° C 71% 1012.8 hPa 0 mm - 40 W/m² -
1777585811 8.89° C 70% 1013 hPa 0 mm - 26 W/m² -
1777585506 8.89° C 70% 1012.7 hPa 0 mm - 19 W/m² -
1777585210 8.89° C 71% 1012.8 hPa 0 mm - 20 W/m² -
1777584897 8.89° C 70% 1012.5 hPa 0 mm - 20 W/m² -
1777584595 9.44° C 70% 1012.6 hPa 0 mm - 15 W/m² -
1777584292 9.44° C 69% 1012.6 hPa 0 mm - 17 W/m² -
1777583987 9.44° C 69% 1012.6 hPa 0 mm - 23 W/m² -
1777583682 10° C 69% 1012.5 hPa 0 mm - 36 W/m² -
1777583381 10° C 70% 1012.5 hPa 0 mm - 68 W/m² -
1777583080 10.56° C 71% 1012.5 hPa 0 mm - 97 W/m² -

* Rain latest hour (hover to see other rain measurements)
** Current wind speed in m/s (hover to see current wind gust speed)